User: anonymous   Login
Location: Poprad
(49.0500°N, 20.3000°E)
Time: 02:31:19
(UTC+02:00)
Language:

NANOSAT C BR1 - Orbit

View from above orbital plane
View from above orbital plane
View from above satellite
View from above satellite

Ground track
Ground track

The orbit data is extracted from the following two-line orbital elements,

1 40024U 14033Q   24114.47257473  .00018561  00000-0  14215-2 0  9998
2 40024  98.0569  84.3748 0006990   6.1807 353.9501 15.01899565535030
Epoch (UTC): 23 April 2024 11:20:30
Eccentricity: 0.0006990
inclination: 98.0569°
perigee height: 556 km
apogee height: 566 km
right ascension of ascending node: 84.3748°
argument of perigee: 6.1807°
revolutions per day: 15.01899565
mean anomaly at epoch: 353.9501°
orbit number at epoch: 53503

The dashed part of the orbit path shows where the satellite is in the earth's shadow,  

DLR